Year,Month,Day,Hour,Minute,Value (Times are PST for temperature in C)
2018,06,16,00,00,12.80
2018,06,16,00,01,12.80
2018,06,16,00,02,12.80
2018,06,16,00,03,12.80
2018,06,16,00,04,12.80
2018,06,16,00,05,12.80
2018,06,16,00,06,12.90
2018,06,16,00,07,12.90
2018,06,16,00,08,12.90
2018,06,16,00,09,13.00
2018,06,16,00,10,13.00
2018,06,16,00,11,13.10
2018,06,16,00,12,13.10
2018,06,16,00,13,13.20
2018,06,16,00,14,13.20
2018,06,16,00,15,13.20
2018,06,16,00,16,13.20
2018,06,16,00,17,13.20
2018,06,16,00,18,13.20
2018,06,16,00,19,13.20
2018,06,16,00,20,13.10
2018,06,16,00,21,13.10
2018,06,16,00,22,13.10
2018,06,16,00,23,13.10
2018,06,16,00,24,13.10
2018,06,16,00,25,13.10
2018,06,16,00,26,13.10
2018,06,16,00,27,13.10
2018,06,16,00,28,13.10
2018,06,16,00,29,13.10
2018,06,16,00,30,13.20
2018,06,16,00,31,13.10
2018,06,16,00,32,13.10
2018,06,16,00,33,13.10
2018,06,16,00,34,13.10
2018,06,16,00,35,13.10
2018,06,16,00,36,13.10
2018,06,16,00,37,13.10
2018,06,16,00,38,13.10
2018,06,16,00,39,13.10
2018,06,16,00,40,13.10
2018,06,16,00,41,13.10
2018,06,16,00,42,13.10
2018,06,16,00,43,13.10
2018,06,16,00,44,13.10
2018,06,16,00,45,13.10
2018,06,16,00,46,13.10
2018,06,16,00,47,13.00
2018,06,16,00,48,13.00
2018,06,16,00,49,13.00
2018,06,16,00,50,12.90
2018,06,16,00,51,12.90
2018,06,16,00,52,12.90
2018,06,16,00,53,12.90
2018,06,16,00,54,12.90
2018,06,16,00,55,12.90
2018,06,16,00,56,12.80
2018,06,16,00,57,12.80
2018,06,16,00,58,12.80
2018,06,16,00,59,12.80
2018,06,16,01,00,12.80
2018,06,16,01,01,12.80
2018,06,16,01,02,12.80
2018,06,16,01,03,12.80
2018,06,16,01,04,12.90
2018,06,16,01,05,13.00
2018,06,16,01,06,13.10
2018,06,16,01,07,13.10
2018,06,16,01,08,13.10
2018,06,16,01,09,13.20
2018,06,16,01,10,13.20
2018,06,16,01,11,13.20
2018,06,16,01,12,13.20
2018,06,16,01,13,13.30
2018,06,16,01,14,13.30
2018,06,16,01,15,13.30
2018,06,16,01,16,13.20
2018,06,16,01,17,13.20
2018,06,16,01,18,13.10
2018,06,16,01,19,13.10
2018,06,16,01,20,13.10
2018,06,16,01,21,13.00
2018,06,16,01,22,12.90
2018,06,16,01,23,12.80
2018,06,16,01,24,12.80
2018,06,16,01,25,12.70
2018,06,16,01,26,12.70
2018,06,16,01,27,12.70
2018,06,16,01,28,12.60
2018,06,16,01,29,12.60
2018,06,16,01,30,12.60
2018,06,16,01,31,12.60
2018,06,16,01,32,12.50
2018,06,16,01,33,12.50
2018,06,16,01,34,12.50
2018,06,16,01,35,12.50
2018,06,16,01,36,12.50
2018,06,16,01,37,12.50
2018,06,16,01,38,12.50
2018,06,16,01,39,12.60
2018,06,16,01,40,12.60
2018,06,16,01,41,12.70
2018,06,16,01,42,12.70
2018,06,16,01,43,12.80
2018,06,16,01,44,12.80
2018,06,16,01,45,12.80
2018,06,16,01,46,12.90
2018,06,16,01,47,12.90
2018,06,16,01,48,12.90
2018,06,16,01,49,13.00
2018,06,16,01,50,13.00
2018,06,16,01,51,13.10
2018,06,16,01,52,13.10
2018,06,16,01,53,13.10
2018,06,16,01,54,13.20
2018,06,16,01,55,13.20
2018,06,16,01,56,13.20
2018,06,16,01,57,13.30
2018,06,16,01,58,13.30
2018,06,16,01,59,13.30
2018,06,16,02,00,13.30
2018,06,16,02,01,13.30
2018,06,16,02,02,13.30
2018,06,16,02,03,13.30
2018,06,16,02,04,13.30
2018,06,16,02,05,13.30
2018,06,16,02,06,13.30
2018,06,16,02,07,13.30
2018,06,16,02,08,13.30
2018,06,16,02,09,13.30
2018,06,16,02,10,13.40
2018,06,16,02,11,13.40
2018,06,16,02,12,13.40
2018,06,16,02,13,13.40
2018,06,16,02,14,13.30
2018,06,16,02,15,13.30
2018,06,16,02,16,13.30
2018,06,16,02,17,13.30
2018,06,16,02,18,13.30
2018,06,16,02,19,13.30
2018,06,16,02,20,13.30
2018,06,16,02,21,13.30
2018,06,16,02,22,13.30
2018,06,16,02,23,13.30
2018,06,16,02,24,13.20
2018,06,16,02,25,13.20
2018,06,16,02,26,13.20
2018,06,16,02,27,13.20
2018,06,16,02,28,13.10
2018,06,16,02,29,13.10
2018,06,16,02,30,13.10
2018,06,16,02,31,13.00
2018,06,16,02,32,13.00
2018,06,16,02,33,12.90
2018,06,16,02,34,12.90
2018,06,16,02,35,12.80
2018,06,16,02,36,12.80
2018,06,16,02,37,12.80
2018,06,16,02,38,12.80
2018,06,16,02,39,12.80
2018,06,16,02,40,12.70
2018,06,16,02,41,12.70
2018,06,16,02,42,12.70
2018,06,16,02,43,12.70
2018,06,16,02,44,12.70
2018,06,16,02,45,12.70
2018,06,16,02,46,12.70
2018,06,16,02,47,12.60
2018,06,16,02,48,12.60
2018,06,16,02,49,12.50
2018,06,16,02,50,12.50
2018,06,16,02,51,12.60
2018,06,16,02,52,12.60
2018,06,16,02,53,12.70
2018,06,16,02,54,12.70
2018,06,16,02,55,12.70
2018,06,16,02,56,12.70
2018,06,16,02,57,12.70
2018,06,16,02,58,12.70
2018,06,16,02,59,12.70
2018,06,16,03,00,12.70
2018,06,16,03,01,12.70
2018,06,16,03,02,12.70
2018,06,16,03,03,12.70
2018,06,16,03,04,12.70
2018,06,16,03,05,12.70
2018,06,16,03,06,12.70
2018,06,16,03,07,12.70
2018,06,16,03,08,12.70
2018,06,16,03,09,12.60
2018,06,16,03,10,12.60
2018,06,16,03,11,12.60
2018,06,16,03,12,12.50
2018,06,16,03,13,12.50
2018,06,16,03,14,12.50
2018,06,16,03,15,12.50
2018,06,16,03,16,12.50
2018,06,16,03,17,12.50
2018,06,16,03,18,12.50
2018,06,16,03,19,12.40
2018,06,16,03,20,12.40
2018,06,16,03,21,12.40
2018,06,16,03,22,12.40
2018,06,16,03,23,12.40
2018,06,16,03,24,12.40
2018,06,16,03,25,12.40
2018,06,16,03,26,12.40
2018,06,16,03,27,12.40
2018,06,16,03,28,12.40
2018,06,16,03,29,12.40
2018,06,16,03,30,12.40
2018,06,16,03,31,12.50
2018,06,16,03,32,12.50
2018,06,16,03,33,12.50
2018,06,16,03,34,12.50
2018,06,16,03,35,12.60
2018,06,16,03,36,12.60
2018,06,16,03,37,12.60
2018,06,16,03,38,12.60
2018,06,16,03,39,12.60
2018,06,16,03,40,12.60
2018,06,16,03,41,12.60
2018,06,16,03,42,12.60
2018,06,16,03,43,12.60
2018,06,16,03,44,12.60
2018,06,16,03,45,12.70
2018,06,16,03,46,12.70
2018,06,16,03,47,12.70
2018,06,16,03,48,12.80
2018,06,16,03,49,12.80
2018,06,16,03,50,12.80
2018,06,16,03,51,12.80
2018,06,16,03,52,12.80
2018,06,16,03,53,12.90
2018,06,16,03,54,12.90
2018,06,16,03,55,12.90
2018,06,16,03,56,12.90
2018,06,16,03,57,12.90
2018,06,16,03,58,12.90
2018,06,16,03,59,12.90
2018,06,16,04,00,12.90
2018,06,16,04,01,12.90
2018,06,16,04,02,12.90
2018,06,16,04,03,12.90
2018,06,16,04,04,12.90
2018,06,16,04,05,12.90
2018,06,16,04,06,12.90
2018,06,16,04,07,12.90
2018,06,16,04,08,12.90
2018,06,16,04,09,12.90
2018,06,16,04,10,12.90
2018,06,16,04,11,12.90
2018,06,16,04,12,12.80
2018,06,16,04,13,12.80
2018,06,16,04,14,12.80
2018,06,16,04,15,12.70
2018,06,16,04,16,12.70
2018,06,16,04,17,12.70
2018,06,16,04,18,12.60
2018,06,16,04,19,12.60
2018,06,16,04,20,12.60
2018,06,16,04,21,12.50
2018,06,16,04,22,12.50
2018,06,16,04,23,12.50
2018,06,16,04,24,12.50
2018,06,16,04,25,12.40
2018,06,16,04,26,12.40
2018,06,16,04,27,12.40
2018,06,16,04,28,12.40
2018,06,16,04,29,12.30
2018,06,16,04,30,12.30
2018,06,16,04,31,12.30
2018,06,16,04,32,12.20
2018,06,16,04,33,12.20
2018,06,16,04,34,12.20
2018,06,16,04,35,12.10
2018,06,16,04,36,12.10
2018,06,16,04,37,12.10
2018,06,16,04,38,12.10
2018,06,16,04,39,12.10
2018,06,16,04,40,12.00
2018,06,16,04,41,12.00
2018,06,16,04,42,12.00
2018,06,16,04,43,12.00
2018,06,16,04,44,12.00
2018,06,16,04,45,12.00
2018,06,16,04,46,12.00
2018,06,16,04,47,12.00
2018,06,16,04,48,12.00
2018,06,16,04,49,12.00
2018,06,16,04,50,12.00
2018,06,16,04,51,12.00
2018,06,16,04,52,12.00
2018,06,16,04,53,11.90
2018,06,16,04,54,11.90
2018,06,16,04,55,11.90
2018,06,16,04,56,11.90
2018,06,16,04,57,11.80
2018,06,16,04,58,11.80
2018,06,16,04,59,11.80
2018,06,16,05,00,11.80
2018,06,16,05,01,11.80
2018,06,16,05,02,11.80
2018,06,16,05,03,11.80
2018,06,16,05,04,11.80
2018,06,16,05,05,11.80
2018,06,16,05,06,11.80
2018,06,16,05,07,11.90
2018,06,16,05,08,11.90
2018,06,16,05,09,11.90
2018,06,16,05,10,12.00
2018,06,16,05,11,12.10
2018,06,16,05,12,12.10
2018,06,16,05,13,12.10
2018,06,16,05,14,12.10
2018,06,16,05,15,12.20
2018,06,16,05,16,12.20
2018,06,16,05,17,12.20
2018,06,16,05,18,12.30
2018,06,16,05,19,12.30
2018,06,16,05,20,12.40
2018,06,16,05,21,12.40
2018,06,16,05,22,12.40
2018,06,16,05,23,12.50
2018,06,16,05,24,12.50
2018,06,16,05,25,12.50
2018,06,16,05,26,12.50
2018,06,16,05,27,12.50
2018,06,16,05,28,12.50
2018,06,16,05,29,12.60
2018,06,16,05,30,12.50
2018,06,16,05,31,12.50
2018,06,16,05,32,12.50
2018,06,16,05,33,12.40
2018,06,16,05,34,12.40
2018,06,16,05,35,12.40
2018,06,16,05,36,12.40
2018,06,16,05,37,12.40
2018,06,16,05,38,12.40
2018,06,16,05,39,12.40
2018,06,16,05,40,12.40
2018,06,16,05,41,12.40
2018,06,16,05,42,12.40
2018,06,16,05,43,12.40
2018,06,16,05,44,12.40
2018,06,16,05,45,12.40
2018,06,16,05,46,12.40
2018,06,16,12,00,21.40
2018,06,16,12,01,21.40
2018,06,16,12,02,21.50
2018,06,16,12,03,21.60
2018,06,16,12,04,21.60
2018,06,16,12,05,21.60
2018,06,16,12,06,21.60
2018,06,16,12,07,21.60
2018,06,16,12,08,21.60
2018,06,16,12,09,21.70
2018,06,16,12,10,21.70
2018,06,16,12,11,21.80
2018,06,16,12,12,21.80
2018,06,16,12,13,21.90
2018,06,16,12,14,22.00
2018,06,16,12,15,22.10
2018,06,16,12,16,22.20
2018,06,16,12,17,22.30
2018,06,16,12,18,22.20
2018,06,16,12,19,22.10
2018,06,16,12,20,22.00
2018,06,16,12,21,22.00
2018,06,16,12,22,22.00
2018,06,16,12,23,22.00
2018,06,16,12,24,22.00
2018,06,16,12,25,22.10
2018,06,16,12,26,22.20
2018,06,16,12,27,22.20
2018,06,16,12,28,22.30
2018,06,16,12,29,22.30
2018,06,16,12,30,22.30
2018,06,16,12,31,22.30
2018,06,16,12,32,22.30
2018,06,16,12,33,22.40
2018,06,16,12,34,22.40
2018,06,16,12,35,22.40
2018,06,16,12,36,22.40
2018,06,16,12,37,22.40
2018,06,16,12,38,22.40
2018,06,16,12,39,22.40
2018,06,16,12,40,22.40
2018,06,16,12,41,22.30
2018,06,16,12,42,22.30
2018,06,16,12,43,22.30
2018,06,16,12,44,22.30
2018,06,16,12,45,22.20
2018,06,16,12,46,22.20
2018,06,16,12,47,22.20
2018,06,16,12,48,22.20
2018,06,16,12,49,22.20
2018,06,16,12,50,22.20
2018,06,16,12,51,22.20
2018,06,16,12,52,22.20
2018,06,16,12,53,22.20
2018,06,16,12,54,22.20
2018,06,16,12,55,22.20
2018,06,16,12,56,22.20
2018,06,16,12,57,22.30
2018,06,16,12,58,22.30
2018,06,16,12,59,22.40
2018,06,16,13,00,22.40
2018,06,16,13,01,22.60
2018,06,16,13,02,22.60
2018,06,16,13,03,22.70
2018,06,16,13,04,22.80
2018,06,16,13,05,22.80
2018,06,16,13,06,22.80
2018,06,16,13,07,22.80
2018,06,16,13,08,22.80
2018,06,16,13,09,22.80
2018,06,16,13,10,22.80
2018,06,16,13,11,22.90
2018,06,16,13,12,22.90
2018,06,16,13,13,22.90
2018,06,16,13,14,22.90
2018,06,16,13,15,22.90
2018,06,16,13,16,22.90
2018,06,16,13,17,22.90
2018,06,16,13,18,22.90
2018,06,16,13,19,22.90
2018,06,16,13,20,23.00
2018,06,16,13,21,23.00
2018,06,16,13,22,23.00
2018,06,16,13,23,23.10
2018,06,16,13,24,23.10
2018,06,16,13,25,22.90
2018,06,16,13,26,22.80
2018,06,16,13,27,22.80
2018,06,16,13,28,22.70
2018,06,16,13,29,22.80
2018,06,16,13,30,22.80
2018,06,16,13,31,22.90
2018,06,16,13,32,23.00
2018,06,16,13,33,23.00
2018,06,16,13,34,23.10
2018,06,16,13,35,23.20
2018,06,16,13,36,23.30
2018,06,16,13,37,23.40
2018,06,16,13,38,23.50
2018,06,16,13,39,23.60
2018,06,16,13,40,23.60
2018,06,16,13,41,23.50
2018,06,16,13,42,23.50
2018,06,16,13,43,23.50
2018,06,16,13,44,23.50
2018,06,16,13,45,23.60
2018,06,16,13,46,23.70
2018,06,16,13,47,23.70
2018,06,16,13,48,23.70
2018,06,16,13,49,23.70
2018,06,16,13,50,23.70
2018,06,16,13,51,23.80
2018,06,16,13,52,23.80
2018,06,16,13,53,23.80
2018,06,16,13,54,23.80
2018,06,16,13,55,23.80
2018,06,16,13,56,23.80
2018,06,16,13,57,23.70
2018,06,16,13,58,23.80
2018,06,16,13,59,23.80
2018,06,16,14,00,23.80
2018,06,16,14,01,23.80
2018,06,16,14,02,23.80
2018,06,16,14,03,23.80
2018,06,16,14,04,23.80
2018,06,16,14,05,23.90
2018,06,16,14,06,23.90
2018,06,16,14,07,23.90
2018,06,16,14,08,23.90
2018,06,16,14,09,23.90
2018,06,16,14,10,24.00
2018,06,16,14,11,24.00
2018,06,16,14,12,24.00
2018,06,16,14,13,24.10
2018,06,16,14,14,24.20
2018,06,16,14,15,24.20
2018,06,16,14,16,24.20
2018,06,16,14,17,24.20
2018,06,16,14,18,24.20
2018,06,16,14,19,24.30
2018,06,16,14,20,24.30
2018,06,16,14,21,24.30
2018,06,16,14,22,24.30
2018,06,16,14,23,24.30
2018,06,16,14,24,24.20
2018,06,16,14,25,24.10
2018,06,16,14,26,24.10
2018,06,16,14,27,24.20
2018,06,16,14,28,24.20
2018,06,16,14,29,24.10
2018,06,16,14,30,24.10
2018,06,16,14,31,24.20
2018,06,16,14,32,24.20
2018,06,16,14,33,24.20
2018,06,16,14,34,24.20
2018,06,16,14,35,24.20
2018,06,16,14,36,24.20
2018,06,16,14,37,24.30
2018,06,16,14,38,24.40
2018,06,16,14,39,24.40
2018,06,16,14,40,24.50
2018,06,16,14,41,24.60
2018,06,16,14,42,24.70
2018,06,16,14,43,24.80
2018,06,16,14,44,24.90
2018,06,16,14,45,25.00
2018,06,16,14,46,25.10
2018,06,16,14,47,25.20
2018,06,16,14,48,25.20
2018,06,16,14,49,25.20
2018,06,16,14,50,25.30
2018,06,16,14,51,25.20
2018,06,16,14,52,25.10
2018,06,16,14,53,25.10
2018,06,16,14,54,25.10
2018,06,16,14,55,25.20
2018,06,16,14,56,25.20
2018,06,16,14,57,25.10
2018,06,16,14,58,24.90
2018,06,16,14,59,24.80
2018,06,16,15,00,24.80
2018,06,16,15,01,24.80
2018,06,16,15,02,24.90
2018,06,16,15,03,24.90
2018,06,16,15,04,24.90
2018,06,16,15,05,25.00
2018,06,16,15,06,25.00
2018,06,16,15,07,25.10
2018,06,16,15,08,25.10
2018,06,16,15,09,25.10
2018,06,16,15,10,25.20
2018,06,16,15,11,25.20
2018,06,16,15,12,25.30
2018,06,16,15,13,25.30
2018,06,16,15,14,25.30
2018,06,16,15,15,25.30
2018,06,16,15,16,25.20
2018,06,16,15,17,25.20
2018,06,16,15,18,25.20
2018,06,16,15,19,25.20
2018,06,16,15,20,25.30
2018,06,16,15,21,25.30
2018,06,16,15,22,25.20
2018,06,16,15,23,25.20
2018,06,16,15,24,25.20
2018,06,16,15,25,25.20
2018,06,16,15,26,25.20
2018,06,16,15,27,25.10
2018,06,16,15,28,25.10
2018,06,16,15,29,25.10
2018,06,16,15,30,25.20
2018,06,16,15,31,25.20
2018,06,16,15,32,25.20
2018,06,16,15,33,25.20
2018,06,16,15,34,25.20
2018,06,16,15,35,25.20
2018,06,16,15,36,25.30
2018,06,16,15,37,25.40
2018,06,16,15,38,25.40
2018,06,16,15,39,25.50
2018,06,16,15,40,25.60
2018,06,16,15,41,25.60
2018,06,16,15,42,25.60
2018,06,16,15,43,25.60
2018,06,16,15,44,25.70
2018,06,16,15,45,25.70
2018,06,16,15,46,25.70
2018,06,16,15,47,25.60
2018,06,16,15,48,25.60
2018,06,16,15,49,25.60
2018,06,16,15,50,25.60
2018,06,16,15,51,25.60
2018,06,16,15,52,25.70
2018,06,16,15,53,25.70
2018,06,16,15,54,25.70
2018,06,16,15,55,25.70
2018,06,16,15,56,25.70
2018,06,16,15,57,25.70
2018,06,16,15,58,25.70
2018,06,16,15,59,25.70
2018,06,16,16,00,25.70
2018,06,16,16,01,25.80
2018,06,16,16,02,25.80
2018,06,16,16,03,25.80
2018,06,16,16,04,25.80
2018,06,16,16,05,25.70
2018,06,16,16,06,25.70
2018,06,16,16,07,25.60
2018,06,16,16,08,25.60
2018,06,16,16,09,25.60
2018,06,16,16,10,25.70
2018,06,16,16,11,25.80
2018,06,16,16,12,25.80
2018,06,16,16,13,25.90
2018,06,16,16,14,25.90
2018,06,16,16,15,25.90
2018,06,16,16,16,25.90
2018,06,16,16,17,25.90
2018,06,16,16,18,25.80
2018,06,16,16,19,25.70
2018,06,16,16,20,25.70
2018,06,16,16,21,25.70
2018,06,16,16,22,25.80
2018,06,16,16,23,25.80
2018,06,16,16,24,25.90
2018,06,16,16,25,25.90
2018,06,16,16,26,25.90
2018,06,16,16,27,25.90
2018,06,16,16,28,25.90
2018,06,16,16,29,26.00
2018,06,16,16,30,26.00
2018,06,16,16,31,26.00
2018,06,16,16,32,26.00
2018,06,16,16,33,25.90
2018,06,16,16,34,25.90
2018,06,16,16,35,25.90
2018,06,16,16,36,25.90
2018,06,16,16,37,25.90
2018,06,16,16,38,25.90
2018,06,16,16,39,25.90
2018,06,16,16,40,25.90
2018,06,16,16,41,25.90
2018,06,16,16,42,26.00
2018,06,16,16,43,26.10
2018,06,16,16,44,26.20
2018,06,16,16,45,26.30
2018,06,16,16,46,26.40
2018,06,16,16,47,26.40
2018,06,16,16,48,26.40
2018,06,16,16,49,26.40
2018,06,16,16,50,26.40
2018,06,16,16,51,26.30
2018,06,16,16,52,26.30
2018,06,16,16,53,26.20
2018,06,16,16,54,26.30
2018,06,16,16,55,26.30
2018,06,16,16,56,26.40
2018,06,16,16,57,26.40
2018,06,16,16,58,26.40
2018,06,16,16,59,26.40
2018,06,16,17,00,26.30
2018,06,16,17,01,26.30
2018,06,16,17,02,26.30
2018,06,16,17,03,26.20
2018,06,16,17,04,26.20
2018,06,16,17,05,26.30
2018,06,16,17,06,26.30
2018,06,16,17,07,26.30
2018,06,16,17,08,26.30
2018,06,16,17,09,26.30
2018,06,16,17,10,26.40
2018,06,16,17,11,26.40
2018,06,16,17,12,26.40
2018,06,16,17,13,26.50
2018,06,16,17,14,26.50
2018,06,16,17,15,26.40
2018,06,16,17,16,26.30
2018,06,16,17,17,26.30
2018,06,16,17,18,26.30
2018,06,16,17,19,26.30
2018,06,16,17,20,26.30
2018,06,16,17,21,26.30
2018,06,16,17,22,26.30
2018,06,16,17,23,26.30
2018,06,16,17,24,26.30
2018,06,16,17,25,26.40
2018,06,16,17,26,26.40
2018,06,16,17,27,26.50
2018,06,16,17,28,26.60
2018,06,16,17,29,26.60
2018,06,16,17,30,26.60
2018,06,16,17,31,26.60
2018,06,16,17,32,26.60
2018,06,16,17,33,26.60
2018,06,16,17,34,26.60
2018,06,16,17,35,26.60
2018,06,16,17,36,26.60
2018,06,16,17,37,26.60
2018,06,16,17,38,26.50
2018,06,16,17,39,26.50
2018,06,16,17,40,26.60
2018,06,16,17,41,26.60
2018,06,16,17,42,26.70
2018,06,16,17,43,26.70
2018,06,16,17,44,26.70
2018,06,16,17,45,26.60
2018,06,16,17,46,26.60
2018,06,16,17,47,26.60
2018,06,16,17,48,26.60
2018,06,16,17,49,26.70
2018,06,16,17,50,26.80
2018,06,16,17,51,26.80
2018,06,16,17,52,26.90
2018,06,16,17,53,26.90
2018,06,16,17,54,26.90
2018,06,16,17,55,26.80
2018,06,16,17,56,26.80
2018,06,16,17,57,26.80
2018,06,16,17,58,26.80
2018,06,16,17,59,26.80
2018,06,16,18,00,26.90
2018,06,16,18,01,26.90
2018,06,16,18,02,26.90
2018,06,16,18,03,26.90
2018,06,16,18,04,26.90
2018,06,16,18,05,26.90
2018,06,16,18,06,26.90
2018,06,16,18,07,27.00
2018,06,16,18,08,27.00
2018,06,16,18,09,27.00
2018,06,16,18,10,27.00
2018,06,16,18,11,26.90
2018,06,16,18,12,26.90
2018,06,16,18,13,26.90
2018,06,16,18,14,26.80
2018,06,16,18,15,26.80
2018,06,16,18,16,26.80
2018,06,16,18,17,26.90
2018,06,16,18,18,26.90
2018,06,16,18,19,26.90
2018,06,16,18,20,26.90
2018,06,16,18,21,26.90
2018,06,16,18,22,26.90
2018,06,16,18,23,27.00
2018,06,16,18,24,26.90
2018,06,16,18,25,26.90
2018,06,16,18,26,26.90
2018,06,16,18,27,26.90
2018,06,16,18,28,26.90
2018,06,16,18,29,26.90
2018,06,16,18,30,26.90
2018,06,16,18,31,26.90
2018,06,16,18,32,26.90
2018,06,16,18,33,27.00
2018,06,16,18,34,27.00
2018,06,16,18,35,27.10
2018,06,16,18,36,27.10
2018,06,16,18,37,27.10
2018,06,16,18,38,27.20
2018,06,16,18,39,27.20
2018,06,16,18,40,27.10
2018,06,16,18,41,27.10
2018,06,16,18,42,27.10
2018,06,16,18,43,27.10
2018,06,16,18,44,27.20
2018,06,16,18,45,27.20
2018,06,16,18,46,27.20
2018,06,16,18,47,27.20
2018,06,16,18,48,27.20
2018,06,16,18,49,27.20
2018,06,16,18,50,27.20
2018,06,16,18,51,27.10
2018,06,16,18,52,27.10
2018,06,16,18,53,27.10
2018,06,16,18,54,27.10
2018,06,16,18,55,27.10
2018,06,16,18,56,27.20
2018,06,16,18,57,27.20
2018,06,16,18,58,27.20
2018,06,16,18,59,27.20
2018,06,16,19,00,27.20
2018,06,16,19,01,27.20
2018,06,16,19,02,27.20
2018,06,16,19,03,27.10
2018,06,16,19,04,27.10
2018,06,16,19,05,27.10
2018,06,16,19,06,27.10
2018,06,16,19,07,27.10
2018,06,16,19,08,27.10
2018,06,16,19,09,27.10
2018,06,16,19,10,27.10
2018,06,16,19,11,27.20
2018,06,16,19,12,27.20
2018,06,16,19,13,27.20
2018,06,16,19,14,27.20
2018,06,16,19,15,27.20
2018,06,16,19,16,27.20
2018,06,16,19,17,27.20
2018,06,16,19,18,27.20
2018,06,16,19,19,27.20
2018,06,16,19,20,27.20
2018,06,16,19,21,27.20
2018,06,16,19,22,27.10
2018,06,16,19,23,27.10
2018,06,16,19,24,27.10
2018,06,16,19,25,27.10
2018,06,16,19,26,27.10
2018,06,16,19,27,27.10
2018,06,16,19,28,27.00
2018,06,16,19,29,27.00
2018,06,16,19,30,27.00
2018,06,16,19,31,27.00
2018,06,16,19,32,27.00
2018,06,16,19,33,27.00
2018,06,16,19,34,27.00
2018,06,16,19,35,26.90
2018,06,16,19,36,26.90
2018,06,16,19,37,26.90
2018,06,16,19,38,26.90
2018,06,16,19,39,26.90
2018,06,16,19,40,26.90
2018,06,16,19,41,26.90
2018,06,16,19,42,26.90
2018,06,16,19,43,27.00
2018,06,16,19,44,27.00
2018,06,16,19,45,27.00
2018,06,16,19,46,27.00
2018,06,16,19,47,27.00
2018,06,16,19,48,27.00
2018,06,16,19,49,27.00
2018,06,16,19,50,27.00
2018,06,16,19,51,27.00
2018,06,16,19,52,27.00
2018,06,16,19,53,26.90
2018,06,16,19,54,26.90
2018,06,16,19,55,26.90
2018,06,16,19,56,26.90
2018,06,16,19,57,26.90
2018,06,16,19,58,27.00
2018,06,16,19,59,27.00
2018,06,16,20,00,27.00
2018,06,16,20,01,27.00
2018,06,16,20,02,26.90
2018,06,16,20,03,26.90
2018,06,16,20,04,26.90
2018,06,16,20,05,26.90
2018,06,16,20,06,26.90
2018,06,16,20,07,26.90
2018,06,16,20,08,26.90
2018,06,16,20,09,26.90
2018,06,16,20,10,26.90
2018,06,16,20,11,26.90
2018,06,16,20,12,26.90
2018,06,16,20,13,26.90
2018,06,16,20,14,26.90
2018,06,16,20,15,26.90
2018,06,16,20,16,26.90
2018,06,16,20,17,26.90
2018,06,16,20,18,26.80
2018,06,16,20,19,26.80
2018,06,16,20,20,26.80
2018,06,16,20,21,26.80
2018,06,16,20,22,26.80
2018,06,16,20,23,26.80
2018,06,16,20,24,26.80
2018,06,16,20,25,26.80
2018,06,16,20,26,26.80
2018,06,16,20,27,26.70
2018,06,16,20,28,26.70
2018,06,16,20,29,26.70
2018,06,16,20,30,26.70
2018,06,16,20,31,26.60
2018,06,16,20,32,26.60
2018,06,16,20,33,26.60
2018,06,16,20,34,26.60
2018,06,16,20,35,26.50
2018,06,16,20,36,26.50
2018,06,16,20,37,26.50
2018,06,16,20,38,26.40
2018,06,16,20,39,26.40
2018,06,16,20,40,26.40
2018,06,16,20,41,26.40
2018,06,16,20,42,26.40
2018,06,16,20,43,26.30
2018,06,16,20,44,26.30
2018,06,16,20,45,26.30
2018,06,16,20,46,26.30
2018,06,16,20,47,26.30
2018,06,16,20,48,26.30
2018,06,16,20,49,26.20
2018,06,16,20,50,26.20
2018,06,16,20,51,26.20
2018,06,16,20,52,26.20
2018,06,16,20,53,26.20
2018,06,16,20,54,26.10
2018,06,16,20,55,26.10
2018,06,16,20,56,26.10
2018,06,16,20,57,26.10
2018,06,16,20,58,26.00
2018,06,16,20,59,26.00
2018,06,16,21,00,26.00
2018,06,16,21,01,26.00
2018,06,16,21,02,25.90
2018,06,16,21,03,25.90
2018,06,16,21,04,25.90
2018,06,16,21,05,25.90
2018,06,16,21,06,25.90
2018,06,16,21,07,25.90
2018,06,16,21,08,25.80
2018,06,16,21,09,25.80
2018,06,16,21,10,25.80
2018,06,16,21,11,25.70
2018,06,16,21,12,25.70
2018,06,16,21,13,25.70
2018,06,16,21,14,25.60
2018,06,16,21,15,25.60
2018,06,16,21,16,25.60
2018,06,16,21,17,25.50
2018,06,16,21,18,25.50
2018,06,16,21,19,25.50
2018,06,16,21,20,25.40
2018,06,16,21,21,25.40
2018,06,16,21,22,25.30
2018,06,16,21,23,25.30
2018,06,16,21,24,25.30
2018,06,16,21,25,25.20
2018,06,16,21,26,25.20
2018,06,16,21,27,25.10
2018,06,16,21,28,25.10
2018,06,16,21,29,25.00
2018,06,16,21,30,25.00
2018,06,16,21,31,24.90
2018,06,16,21,32,24.90
2018,06,16,21,33,24.80
2018,06,16,21,34,24.80
2018,06,16,21,35,24.70
2018,06,16,21,36,24.70
2018,06,16,21,37,24.60
2018,06,16,21,38,24.50
2018,06,16,21,39,24.40
2018,06,16,21,40,24.40
2018,06,16,21,41,24.30
2018,06,16,21,42,24.30
2018,06,16,21,43,24.30
2018,06,16,21,44,24.20
2018,06,16,21,45,24.20
2018,06,16,21,46,24.10
2018,06,16,21,47,24.00
2018,06,16,21,48,23.90
2018,06,16,21,49,23.80
2018,06,16,21,50,23.70
2018,06,16,21,51,23.70
2018,06,16,21,52,23.60
2018,06,16,21,53,23.60
2018,06,16,21,54,23.50
2018,06,16,21,55,23.40
2018,06,16,21,56,23.40
2018,06,16,21,57,23.40
2018,06,16,21,58,23.40
2018,06,16,21,59,23.40
2018,06,16,22,00,23.40
2018,06,16,22,01,23.30
2018,06,16,22,02,23.30
2018,06,16,22,03,23.30
2018,06,16,22,04,23.20
2018,06,16,22,05,23.20
2018,06,16,22,06,23.10
2018,06,16,22,07,23.00
2018,06,16,22,08,22.90
2018,06,16,22,09,22.80
2018,06,16,22,10,22.80
2018,06,16,22,11,22.70
2018,06,16,22,12,22.60
2018,06,16,22,13,22.50
2018,06,16,22,14,22.50
2018,06,16,22,15,22.40
2018,06,16,22,16,22.40
2018,06,16,22,17,22.40
2018,06,16,22,18,22.30
2018,06,16,22,19,22.30
2018,06,16,22,20,22.30
2018,06,16,22,21,22.40
2018,06,16,22,22,22.50
2018,06,16,22,23,22.50
2018,06,16,22,24,22.60
2018,06,16,22,25,22.60
2018,06,16,22,26,22.50
2018,06,16,22,27,22.50
2018,06,16,22,28,22.40
2018,06,16,22,29,22.30
2018,06,16,22,30,22.30
2018,06,16,22,31,22.20
2018,06,16,22,32,22.10
2018,06,16,22,33,22.00
2018,06,16,22,34,21.80
2018,06,16,22,35,21.80
2018,06,16,22,36,21.70
2018,06,16,22,37,21.60
2018,06,16,22,38,21.50
2018,06,16,22,39,21.40
2018,06,16,22,40,21.40
2018,06,16,22,41,21.30
2018,06,16,22,42,21.30
2018,06,16,22,43,21.30
2018,06,16,22,44,21.30
2018,06,16,22,45,21.20
2018,06,16,22,46,21.20
2018,06,16,22,47,21.00
2018,06,16,22,48,21.00
2018,06,16,22,49,20.90
2018,06,16,22,50,20.80
2018,06,16,22,51,20.70
2018,06,16,22,52,20.70
2018,06,16,22,53,20.60
2018,06,16,22,54,20.60
2018,06,16,22,55,20.60
2018,06,16,22,56,20.60
2018,06,16,22,57,20.50
2018,06,16,22,58,20.50
2018,06,16,22,59,20.50
2018,06,16,23,00,20.50
2018,06,16,23,01,20.50
2018,06,16,23,02,20.50
2018,06,16,23,03,20.50
2018,06,16,23,04,20.40
2018,06,16,23,05,20.40
2018,06,16,23,06,20.30
2018,06,16,23,07,20.30
2018,06,16,23,08,20.30
2018,06,16,23,09,20.20
2018,06,16,23,10,20.20
2018,06,16,23,11,20.20
2018,06,16,23,12,20.10
2018,06,16,23,13,20.00
2018,06,16,23,14,20.00
2018,06,16,23,15,19.90
2018,06,16,23,16,19.80
2018,06,16,23,17,19.70
2018,06,16,23,18,19.70
2018,06,16,23,19,19.60
2018,06,16,23,20,19.50
2018,06,16,23,21,19.50
2018,06,16,23,22,19.40
2018,06,16,23,23,19.30
2018,06,16,23,24,19.30
2018,06,16,23,25,19.20
2018,06,16,23,26,19.10
2018,06,16,23,27,19.00
2018,06,16,23,28,19.00
2018,06,16,23,29,18.90
2018,06,16,23,30,18.90
2018,06,16,23,31,18.90
2018,06,16,23,32,18.90